Home > Weather > Lucerne > Past weeks

Flag for Switzerland Past Weather in Lucerne, Lucerne, Switzerland — Yesterday and Last 2 Weeks

Now
65 °F

Mild.


Feels Like: 65 °F
Forecast: 55 / 81 °F
Wind: 1 mph from Southwest

Location: Giswil

Current Time: Jun 30, 2016 at 3:45:16 AM

Latest Report: Jun 30, 2016 at 3:00 AM


Visibility: N/A

Pressure: 29.96 "Hg

Humidity: 99%

Dew Point: 65 °F

Location of LucerneLocation

Past Weather in Lucerne — Graph

°F

Lucerne Temperature Yesterday

Maximum temperature yesterday: 78 °F (at 2:00 PM)
Minimum temperature yesterday: 58 °F (at 3:00 AM)
Average temperature yesterday: 67 °F

High & Low Weather Summary for the Past Weeks

 TemperatureHumidityPressure
High89 °F (Jun 23, 5:00 PM)100% (Jun 15, 2:00 AM)30.30 "Hg (Jun 15, 2:00 AM)
Low45 °F (Jun 15, 6:00 AM)45% (Jun 27, 3:00 PM)29.59 "Hg (Jun 15, 3:00 PM)
Average63 °F82%30.04 "Hg
* Reported Jun 15 2:00 AM — Jun 30 2:00 AM, Lucerne, Weather by CustomWeather, © 2016

Note: Actual official high and low records may vary slightly from our data, if they occured in-between our weather recording intervals... More about our weather records

Advertising

Lucerne Weather History for the Previous 24 Hours

Scroll right to see more
 ConditionsComfort  
Time TempWeatherWind HumidityBarometerVisibility
2:00 AM
Thu, Jun 30
65 °FMild.2 mph97%29.96 "HgN/A
1:00 AM65 °FMild.2 mph95%29.94 "HgN/A
12:00 AM64 °FMild.3 mph95%29.94 "HgN/A
11:00 PM
Wed, Jun 29
65 °FMild.3 mph94%29.95 "HgN/A
10:00 PM68 °FMild.3 mph92%29.93 "HgN/A
9:00 PM72 °FMild.1 mph82%29.89 "HgN/A
8:00 PM74 °FMild.3 mph72%29.88 "HgN/A
7:00 PM75 °FMild.1 mph73%29.87 "HgN/A
6:00 PM77 °FWarm.1 mph58%29.86 "HgN/A
2:00 PM78 °FWarm.5 mph55%29.92 "HgN/A
1:00 PM76 °FMild.5 mph56%29.94 "HgN/A
12:00 PM75 °FMild.3 mph58%29.96 "HgN/A
11:00 AM72 °FMild.2 mph64%29.98 "HgN/A
10:00 AM70 °FMild.2 mph66%30.00 "HgN/A
9:00 AM67 °FMild.2 mph77%30.02 "HgN/A
8:00 AM64 °FMild.2 mph85%30.02 "HgN/A
7:00 AM58 °FCool.2 mph98%30.04 "HgN/A
5:00 AM58 °FCool.2 mph95%30.03 "HgN/A
4:00 AM58 °FCool.2 mph94%30.03 "HgN/A
3:00 AM58 °FCool.No wind96%30.04 "HgN/A
Weather by CustomWeather, © 2016

See weather overviewHow to use our weather pages